Location: Ladrillo (historical)
(32.8195°N, 117.2231°W)
Time: 18:48:57
(UTC+00:00)

S-56A Canister/Altair - Visible Passes

Search period start: 04 March 2021 00:00
Search period end: 14 March 2021 00:00
Orbit: 631 x 2501 km, 38.9° (Epoch: 03 March)

Date Brightness Start Highest point End Pass type
(mag) Time Alt. Az. Time Alt. Az. Time Alt. Az.
04 Mar 9.9 01:48:52 10° WNW 02:04:10 81° NNE 02:16:00 10° ESE visible
04 Mar 9.9 03:56:48 10° WNW 04:10:06 53° SW 04:14:53 34° SSE visible
04 Mar 11.1 06:08:46 10° W 06:12:21 13° WSW 06:12:21 13° WSW visible
05 Mar 9.9 03:22:53 10° WNW 03:36:57 60° SW 03:44:25 23° SE visible
05 Mar 10.8 05:33:25 10° W 05:40:26 17° SW 05:41:53 17° SW visible
06 Mar 10.0 02:49:01 10° WNW 03:03:40 67° SW 03:14:02 12° SE visible
06 Mar 10.7 04:58:40 10° W 05:07:38 22° SW 05:11:30 18° SSW visible
07 Mar 10.0 02:15:13 10° WNW 02:30:17 73° SSW 02:41:53 10° SE visible
07 Mar 10.7 04:24:12 10° W 04:34:44 27° SW 04:41:11 16° S visible
08 Mar 10.8 03:49:56 10° WNW 04:01:46 33° SW 04:10:56 10° S visible
09 Mar 10.7 03:15:49 10° WNW 03:28:40 38° SW 03:38:49 10° SSE visible
10 Mar 10.7 02:41:50 10° WNW 02:55:28 44° SW 03:06:27 10° SSE visible
11 Mar 10.7 02:07:58 10° WNW 02:22:10 50° SW 02:33:56 10° SSE visible
11 Mar 11.4 04:20:26 10° W 04:25:59 13° WSW 04:31:02 10° SSW visible
12 Mar 11.4 03:44:58 10° W 03:53:02 17° SW 04:00:10 10° SSW visible
13 Mar 11.4 03:10:09 10° W 03:19:59 22° SW 03:28:37 10° S visible
